Location: Lawrence
(38.9720°N, 95.2350°W)
Time: 12:53:02
(UTC-05:00)

JAS-1B - Visible Passes

Search period start: 30 September 2014 00:00
Search period end: 10 October 2014 00:00
Orbit: 911 x 1745 km, 99.1° (Epoch: 29 September)

Date Brightness Start Highest point End Pass type
(mag) Time Alt. Az. Time Alt. Az. Time Alt. Az.
30 Sep 8.7 04:03:34 10° N 04:05:27 22° N 04:05:27 22° N visible
01 Oct 8.7 04:22:49 10° N 04:24:36 20° NNW 04:24:36 20° NNW visible
02 Oct 9.6 02:50:58 10° NNE 02:51:30 13° NNE 02:51:30 13° NNE visible
02 Oct 8.8 04:42:14 10° N 04:43:45 17° NNW 04:43:45 17° NNW visible
03 Oct 9.4 03:09:44 10° NNE 03:10:39 15° NNE 03:10:39 15° NNE visible
03 Oct 8.9 05:01:54 10° NNW 05:02:54 13° NNW 05:02:54 13° NNW visible
04 Oct 9.2 03:28:39 10° NNE 03:29:49 17° NNE 03:29:49 17° NNE visible
05 Oct 9.1 03:47:42 10° N 03:48:58 18° N 03:48:58 18° N visible
06 Oct 9.0 04:06:52 10° N 04:08:08 17° N 04:08:08 17° N visible
07 Oct 9.0 04:26:10 10° N 04:27:18 16° NNW 04:27:18 16° NNW visible
08 Oct 9.7 02:54:03 10° NNE 02:54:13 11° NNE 02:54:13 11° NNE visible
08 Oct 9.0 04:45:38 10° NNW 04:46:28 13° NNW 04:46:28 13° NNW visible
09 Oct 9.5 03:12:53 10° NNE 03:13:23 13° NNE 03:13:23 13° NNE visible
09 Oct 9.1 05:05:22 10° NNW 05:05:38 11° NNW 05:05:38 11° NNW visible
